SCP
0 0 0 0 0 0 0 0 0 0 0 0 0 0 0 0 0 0 0 0 0 0 0 0 0 0 -0 -0 0 0 0 0 0 0 0 0 0 0 0 0 0 0 0 0 0 0 0
0 0 0 0 0 0 0 0 0 0 0 0 0 0 0 0 0 0 0 0 0 0 0 0 0 0 -0 -0 0 0 0 0 0 0 0 0 0 0 0 0 0 0 0 0 0 0 0
0 0 0 0 0 0 0 0 0 0 0 0 0 0 0 0 0 0 0 0 0 0 0 0 0 0 -0 -0 0 0 0 0 0 0 0 0 0 0 0 0 0 0 0 0 0 0 0
0 0 0 0 0 0 0 0 0 0 0 0 0 0 0 0 0 0 0 0 0 0 0 0 0 -0 -0 0 0 0 0 0 0 0 0 0 0 0 0 0 0 0 0 0 0 0 0
0 0 0 0 0 0 0 0 0 0 0 0 0 0 0 0 0 0 0 0 0 0 0 0 -0 -0 0 0 0 0 0 0 0 0 0 0 0 0 0 0 0 0 0 0 0 0 0
0 0 0 0 0 0 0 0 0 0 0 0 0 0 0 0 0 0 0 0 0 0 0 -0 0 0 0 0 0 0 0 0 0 0 0 0 0 0 0 0 0 0 0 0 0 0 0
0 0 0 0 0 0 0 0 0 0 0 0 0 0 0 0 0 0 0 -0 0 -0 0 0 0 0 0 0 0 0 0 0 0 0 0 0 0 0 0 0 0 0 0 0 0 0 0
0 0 0 0 0 0 0 0 0 0 0 0 0 0 0 0 0 0 0 -0 -0 -0 -0 0 0 0 0 0 0 0 0 0 -0 -0 0 0 0 0 0 0 0 0 0 0 0 0 0
0 0 0 0 0 0 0 0 0 0 0 0 0 0 0 0 -0 0 0 0 0 0 -0 0 0 0 0 0 0 0 0 0 -0 -0 -0 0 0 0 0 0 0 0 0 0 0 0 0
0 0 0 0 0 0 0 0 0 0 0 0 0 0 0 0 0 0 0 0 0 -0 0 0 0 0 0 0 0 0 0 0 0 0 0 0 0 0 0 0 0 0 0 0 0 0 0
0 0 0 0 0 0 0 0 0 0 0 0 0 0 0 0 0 0 0 0 0 -0 0 0 0 0 0 0 0 0 0 0 0 0 0 0 0 0 0 0 0 0 0 0 0 0 0
0 0 0 0 0 0 0 0 0 0 0 0 0 0 0 0 0 0 0 0 0 0 0 0 0 0 0 0 0 0 0 0 0 0 0 0 0 0 0 0 0 0 0 0 0 0 0
0 0 0 0 0 0 0 0 0 0 0 0 0 0 0 0 0 0 0 0 0 0 0 0 0 0 0 0 0 0 0 0 0 0 0 0 0 0 -0 -0 0 0 0 0 0 0 0
0 0 0 0 0 0 0 0 0 0 0 0 0 0 0 0 0 0 0 0 0 0 0 0 0 0 0 0 0 0 0 0 0 0 0 0 0 0 0 0 0 0 0 0 0 0 0
0 0 0 0 0 0 0 0 0 0 0 0 0 0 0 0 0 0 0 0 0 0 0 0 0 0 0 0 0 0 0 0 0 0 0 0 0 -0 0 0 0 0 0 0 0 0 0
0 0 0 0 0 0 0 0 0 0 0 0 0 0 0 0 0 0 0 0 0 0 0 0 0 0 0 0 0 0 0 0 0 -0 0 0 0 -0 -0 0 0 0 0 0 0 0 0
0 0 0 0 0 0 0 0 0 0 0 0 0 0 0 0 0 0 0 0 0 0 0 0 0 0 0 0 0 0 0 0 0 0 0 0 0 -0 0 0 0 0 0 0 0 0 0
0 0 0 0 0 0 0 0 0 0 0 0 0 0 0 0 0 0 0 0 0 0 0 0 0 0 0 0 0 0 0 0 0 0 0 -0 0 0 0 0 0 0 0 -0 0 0 0
0 0 0 0 0 0 0 0 0 0 0 0 0 0 0 0 0 0 0 0 0 0 0 0 0 0 0 0 0 0 0 0 0 0 0 -0 0 0 0 0 -0 0 0 0 0 -0 0
0 0 0 0 0 0 0 0 0 0 0 0 0 0 0 0 0 0 0 0 0 0 0 0 0 0 0 0 0 0 0 0 0 0 0 -0 -0 0 0 0 0 0 0 0 0 -0 0
0 0 0 0 0 0 0 0 0 0 0 0 0 0 0 0 0 0 0 0 0 0 0 0 0 0 0 0 0 0 0 0 0 -0 -0 -0 0 0 0 0 0 0 0 -0 0 -0 0
0 0 0 0 0 0 0 0 0 0 0 0 0 0 0 0 0 0 0 0 0 0 0 0 0 0 0 0 0 0 0 0 0 0 -0 -0 0 0 0 0 0 0 0 -0 0 0 0
0 0 0 0 0 0 0 0 0 0 0 0 0 0 0 0 0 0 0 0 0 0 0 0 0 0 0 0 0 0 0 0 0 0 -0 0 0 0 0 0 -0 -0 0 0 0 0 0
0 0 0 0 0 0 0 0 0 0 0 0 0 0 0 0 0 0 0 0 0 0 0 0 0 0 0 0 0 0 0 0 -0 -0 -0 -0 0 -0 0 0 0 -0 -0 0 0 0 0
0 0 0 0 0 0 0 0 0 0 0 0 0 0 0 0 0 0 0 0 0 0 0 0 -0 0 0 0 0 0 0 0 0 0 -0 -0 -0 -0 -0 -0 0 -0 0 0 0 0 0
0 0 0 0 0 0 0 0 0 0 0 0 0 0 0 0 0 0 0 0 0 0 0 0 0 0 0 0 0 0 0 0 0 0 0 -0 -0 0 0 -0 -0 -0 0 0 0 0 0
0 0 0 0 0 0 0 0 0 0 0 0 0 0 0 0 0 0 0 0 0 0 0 0 -0 -0 0 0 0 0 0 0 0 0 0 0 0 0 0 0 -0 -0 0 -0 0 0 0
0 0 0 0 0 0 0 0 0 0 0 0 0 0 0 0 0 0 0 0 0 0 0 0 0 -0 0 0 0 0 0 0 0 0 0 0 0 0 0 0 0 0 0 -0 -0 -0 0
0 0 0 0 0 0 0 0 0 0 0 0 0 0 0 0 0 0 0 0 0 0 0 0 0 -0 0 0 0 0 0 0 0 0 0 0 0 0 0 0 0 0 0 0 -0 -0 0
Wind_Speed_500mb
26 26 30 29 31 32 32 34 37 38 39 42 43 43 44 42 45 46 48 52 54 46 44 48 51 50 41 20 7 13 29 27 33 37 27 29 24 22 22 19 32 35 30 50 49 51 41
29 30 29 33 35 34 35 36 38 38 39 41 43 45 45 46 46 48 50 53 56 50 43 42 45 39 19 5 10 26 37 37 37 33 29 21 20 41 32 31 30 30 35 37 40 45 52
28 27 31 33 33 34 35 33 38 38 42 41 43 46 48 46 48 50 53 55 51 47 43 32 29 21 14 15 24 30 32 34 32 29 33 29 25 24 31 20 34 43 36 37 37 32 25
25 28 30 34 33 35 37 37 39 39 44 44 45 46 51 48 51 54 54 54 52 41 27 18 20 8 9 12 26 30 41 34 32 26 34 35 30 33 30 29 25 18 24 28 7 37 36
26 30 33 32 33 35 36 40 42 43 45 48 44 48 48 52 54 54 53 53 31 29 12 20 10 4 5 15 37 47 42 47 42 37 37 28 19 33 28 25 21 18 25 32 28 35 24
27 32 35 35 39 39 36 39 44 41 46 48 48 46 47 50 50 54 53 45 21 13 28 6 1 11 4 21 37 33 44 45 37 45 37 9 10 19 15 21 30 18 35 34 46 21 29
27 36 31 38 43 43 35 36 39 42 39 45 44 45 48 49 46 46 56 34 28 6 28 10 24 22 20 27 17 25 52 35 42 35 15 23 23 37 19 33 42 41 49 48 36 23 40
26 28 31 38 43 43 42 38 38 41 40 41 47 44 46 45 36 36 34 30 20 18 22 27 13 10 11 14 16 22 49 33 35 23 28 14 36 28 33 40 45 47 52 63 44 43 20
27 30 32 39 43 44 45 42 40 36 38 38 42 41 42 42 17 29 25 23 19 21 10 19 0 6 12 18 15 47 42 36 25 20 21 24 38 49 46 45 48 48 56 46 46 31 36
27 34 27 38 37 42 44 45 45 38 35 35 37 39 41 44 11 32 18 29 22 18 7 7 8 4 21 31 10 53 35 27 19 24 32 26 17 29 45 48 42 50 39 46 42 32 38
30 30 28 35 36 42 41 44 45 38 39 40 38 40 39 30 29 22 29 27 21 5 4 4 10 7 24 25 40 30 31 15 24 37 22 36 46 44 47 52 48 57 36 45 50 41 38
27 29 29 30 34 38 44 46 39 43 38 42 42 38 37 26 20 19 31 23 14 5 2 6 2 23 27 36 36 36 28 37 53 24 31 54 62 47 51 51 55 39 27 43 39 35 32
25 33 31 39 35 36 40 46 43 40 41 40 42 37 33 26 17 30 22 19 2 0 3 6 18 26 26 34 25 23 26 25 28 36 35 48 44 51 62 51 44 37 22 15 21 19 28
30 34 32 35 37 33 37 39 46 50 47 45 44 37 29 24 19 11 12 4 1 5 7 18 22 27 25 24 24 30 30 26 35 20 31 24 34 33 27 26 26 40 33 17 30 17 47
22 33 30 35 33 35 39 39 42 47 53 49 47 28 18 22 17 2 5 2 4 13 19 18 24 21 11 19 27 28 25 28 25 33 17 33 28 57 58 57 25 10 37 33 47 41 15
32 29 33 33 34 37 40 38 43 44 49 53 45 24 13 14 11 5 1 8 7 16 22 17 18 9 27 30 22 21 18 20 29 36 12 21 46 59 50 38 30 35 18 21 20 19 22
35 30 34 36 34 34 39 40 41 46 47 52 32 17 10 10 3 2 5 6 9 22 23 4 8 15 23 26 20 26 15 35 25 31 40 38 31 57 22 9 29 17 26 23 17 30 9
37 36 36 32 33 33 36 38 38 42 46 47 24 7 9 5 4 7 5 5 7 18 26 22 9 13 19 23 20 20 23 22 44 38 29 46 12 16 33 48 48 39 40 41 26 42 34
35 40 35 34 32 35 35 35 38 39 37 41 25 18 18 10 5 6 11 3 6 9 12 7 10 12 15 24 16 14 19 35 54 27 14 16 10 13 18 12 10 8 28 33 37 30 43
33 33 32 34 33 37 34 32 33 35 31 35 13 6 6 17 16 11 15 16 10 20 11 16 20 26 21 18 20 17 30 18 54 50 60 35 26 13 21 29 33 32 32 46 43 30 27
37 36 32 39 37 38 34 29 27 33 29 30 5 8 8 6 9 20 22 13 20 23 24 37 18 17 18 13 17 23 26 42 45 40 27 16 23 31 34 39 41 40 39 39 31 43 33
36 39 35 37 40 38 35 32 29 28 28 26 9 11 15 34 38 33 32 26 31 37 26 27 21 31 27 28 24 33 31 29 24 33 34 18 19 37 35 39 26 39 43 25 19 31 36
39 42 39 39 43 41 37 34 27 25 21 14 22 35 21 25 22 20 23 27 32 26 35 44 32 25 30 26 46 52 52 52 40 41 45 28 9 16 23 30 51 5 14 18 23 17 26
39 44 43 42 40 43 44 39 35 26 21 28 38 37 21 18 20 22 28 39 40 52 47 55 48 33 65 50 55 48 52 47 54 43 39 28 26 8 12 21 10 7 10 20 21 15 23
41 47 48 45 39 46 46 42 37 34 26 31 38 31 22 16 34 33 37 36 54 52 46 50 70 59 55 47 19 10 12 11 15 18 10 12 7 8 4 6 26 11 10 13 15 13 31
41 43 43 47 45 44 43 45 42 39 32 31 39 41 39 25 21 38 53 52 30 34 33 53 55 45 35 11 8 13 10 12 11 14 11 13 14 9 8 6 8 6 13 18 15 3 37
44 44 44 48 52 48 45 45 39 38 37 35 46 41 39 47 56 35 27 25 37 33 22 45 37 30 25 6 12 19 21 9 12 10 7 4 7 11 13 11 14 14 26 30 10 15 34
50 47 46 48 52 51 51 46 43 41 43 38 54 47 51 61 72 79 74 62 61 54 33 53 30 27 20 16 11 12 9 11 8 19 11 11 5 6 4 5 11 28 13 10 8 16 33
56 56 51 47 52 55 54 52 47 44 44 46 58 54 57 58 75 100 105 95 104 107 87 65 39 54 20 12 8 5 5 5 10 16 9 13 13 7 7 6 8 34 10 12 15 17 22
Wind_Direction_500mb
41 36 31 27 22 18 10 6 5 5 358 356 351 349 343 336 341 342 337 335 334 347 344 337 334 337 354 354 29 302 321 312 319 319 328 332 307 282 261 264 271 257 255 261 278 290 260
44 39 24 23 15 7 5 2 358 2 360 355 350 349 345 343 341 335 332 329 332 340 334 330 326 334 345 349 283 318 323 333 337 334 312 297 297 312 304 283 275 281 301 288 259 265 272
39 34 21 21 11 3 7 8 4 3 354 351 349 348 348 347 340 336 333 340 344 333 329 336 336 338 304 286 343 8 358 353 358 343 324 295 284 299 311 303 282 278 280 274 262 256 255
27 23 18 17 11 8 3 6 358 358 355 354 351 346 348 346 341 338 341 342 338 327 340 12 8 36 286 359 21 354 350 350 345 355 335 315 268 274 260 285 304 282 275 267 225 230 239
19 17 13 11 8 3 2 358 357 357 352 350 350 347 346 344 342 340 341 341 335 335 27 10 22 4 42 22 348 334 333 327 323 321 335 311 273 255 260 246 277 233 264 263 258 229 227
6 11 5 10 5 360 358 356 353 357 352 346 348 345 346 341 347 347 346 356 355 9 5 43 72 282 81 351 341 8 3 346 325 323 338 358 251 256 220 220 234 220 242 246 248 253 221
1 1 7 2 3 2 359 358 353 350 345 342 345 345 344 349 351 356 5 7 18 291 15 357 310 305 319 330 359 34 5 4 5 1 334 308 287 242 248 248 259 269 276 273 265 223 243
6 10 358 356 1 5 4 356 350 351 347 341 343 345 344 342 351 4 8 41 31 344 310 333 312 277 300 345 346 6 2 13 358 352 341 319 259 280 282 273 271 260 259 260 279 280 258
9 2 354 356 6 5 359 357 345 343 345 339 339 341 341 344 4 351 11 8 360 352 306 307 18 65 20 347 36 356 358 350 345 337 342 295 279 318 301 297 293 276 257 268 266 276 281
353 359 5 357 0 358 356 351 351 339 337 338 336 339 341 351 22 355 358 345 350 348 297 122 142 93 9 347 200 336 354 344 332 331 320 287 320 322 313 285 269 275 298 291 269 259 255
358 355 354 354 2 357 358 353 351 343 340 340 338 338 342 1 340 351 328 342 337 28 9 331 89 82 3 5 314 354 347 355 327 312 287 265 294 286 271 274 283 270 268 274 299 260 257
3 349 350 356 355 359 356 352 347 348 335 338 333 339 339 344 349 309 331 342 355 232 254 343 76 355 354 343 326 327 351 336 312 293 287 287 285 264 262 260 260 278 292 260 277 270 248
350 343 346 348 350 352 357 354 353 345 342 334 329 335 333 335 316 312 343 351 289 340 354 335 346 346 336 321 346 343 342 333 319 323 321 319 292 279 251 258 254 254 266 243 226 225 235
348 347 347 349 354 348 350 353 353 355 347 336 336 334 337 327 309 311 352 302 315 95 320 331 0 328 304 350 324 341 329 322 316 329 309 316 332 321 315 320 286 245 225 233 231 195 231
348 337 340 345 346 348 348 352 352 350 348 336 341 348 340 307 330 274 19 316 306 349 359 347 315 302 341 316 341 327 323 305 325 314 330 310 290 300 291 294 262 271 235 247 259 286 234
324 325 333 340 341 341 344 347 349 349 348 342 341 342 317 328 339 107 315 254 298 296 307 322 311 286 328 328 322 324 321 298 317 307 59 298 299 292 288 293 262 223 199 220 222 227 238
335 335 324 329 331 340 340 343 349 348 347 346 347 329 303 324 23 37 253 266 328 304 320 26 310 303 304 305 314 314 283 303 301 333 324 290 269 278 295 255 284 283 250 221 284 233 250
333 330 327 333 328 334 336 342 348 348 350 347 347 299 310 276 297 225 257 329 344 296 315 301 262 267 279 308 310 303 287 279 309 312 306 290 264 259 263 275 267 254 269 230 221 227 234
334 328 330 328 329 328 331 339 346 350 345 344 334 285 281 234 255 242 258 267 251 290 303 296 294 291 286 289 296 283 293 292 297 313 303 321 272 299 302 303 72 324 304 310 247 269 230
329 330 332 328 325 320 327 334 339 343 350 339 326 301 238 222 259 296 298 279 266 242 256 257 266 293 288 285 281 279 292 298 309 307 305 331 293 248 281 293 299 296 311 303 257 243 229
324 325 322 323 327 326 325 328 335 339 347 336 299 281 335 314 267 253 266 278 281 280 248 268 282 248 261 275 297 285 298 307 307 308 307 328 293 308 308 299 293 276 286 294 252 234 237
321 320 321 317 328 325 322 324 328 326 340 325 287 313 306 294 287 281 274 263 265 277 279 279 272 278 263 264 277 292 309 307 299 307 303 297 285 305 302 303 296 297 296 309 248 251 242
319 318 323 319 322 321 317 311 312 314 327 310 301 299 284 284 287 284 284 291 290 280 277 276 277 279 286 278 293 289 285 288 282 285 289 293 292 323 293 304 304 279 319 314 313 322 237
308 307 312 310 316 319 318 311 305 298 298 296 302 300 279 286 278 271 279 283 281 283 285 284 278 275 279 289 299 295 286 274 273 273 260 266 275 265 276 301 312 234 350 309 311 350 348
313 312 312 307 308 312 310 311 304 304 290 291 298 295 287 281 278 277 281 279 285 284 284 286 283 276 281 293 290 283 294 322 266 236 231 233 235 277 237 287 274 297 11 8 355 20 354
313 307 309 307 302 303 310 305 309 304 292 283 292 295 284 287 276 305 307 297 291 287 288 271 275 290 274 249 249 254 251 234 285 303 212 223 237 243 326 297 269 38 343 297 306 48 354
314 309 303 304 302 303 303 305 306 301 291 278 282 289 279 278 283 290 294 301 299 294 290 289 290 281 275 224 240 255 258 224 256 215 263 292 292 224 259 276 275 337 327 310 343 339 350
320 312 307 303 302 301 299 297 303 294 287 280 283 286 279 274 284 277 275 277 281 277 274 284 291 268 238 235 234 238 222 235 201 238 205 201 189 241 225 232 279 356 14 40 208 301 359
318 315 310 301 302 300 296 294 292 294 289 280 274 286 283 274 272 282 282 280 267 264 263 266 268 275 270 281 248 230 237 240 211 250 199 245 198 206 217 232 313 315 284 320 327 355 10
Wind_Speed_850mb
26 26 30 29 31 32 32 34 37 38 39 42 43 43 44 42 45 46 48 52 54 46 44 48 51 50 41 20 7 13 29 27 33 37 27 29 24 22 22 19 32 35 30 50 49 51 41
29 30 29 33 35 34 35 36 38 38 39 41 43 45 45 46 46 48 50 53 56 50 43 42 45 39 19 5 10 26 37 37 37 33 29 21 20 41 32 31 30 30 35 37 40 45 52
28 27 31 33 33 34 35 33 38 38 42 41 43 46 48 46 48 50 53 55 51 47 43 32 29 21 14 15 24 30 32 34 32 29 33 29 25 24 31 20 34 43 36 37 37 32 25
25 28 30 34 33 35 37 37 39 39 44 44 45 46 51 48 51 54 54 54 52 41 27 18 20 8 9 12 26 30 41 34 32 26 34 35 30 33 30 29 25 18 24 28 7 37 36
26 30 33 32 33 35 36 40 42 43 45 48 44 48 48 52 54 54 53 53 31 29 12 20 10 4 5 15 37 47 42 47 42 37 37 28 19 33 28 25 21 18 25 32 28 35 24
27 32 35 35 39 39 36 39 44 41 46 48 48 46 47 50 50 54 53 45 21 13 28 6 1 11 4 21 37 33 44 45 37 45 37 9 10 19 15 21 30 18 35 34 46 21 29
27 36 31 38 43 43 35 36 39 42 39 45 44 45 48 49 46 46 56 34 28 6 28 10 24 22 20 27 17 25 52 35 42 35 15 23 23 37 19 33 42 41 49 48 36 23 40
26 28 31 38 43 43 42 38 38 41 40 41 47 44 46 45 36 36 34 30 20 18 22 27 13 10 11 14 16 22 49 33 35 23 28 14 36 28 33 40 45 47 52 63 44 43 20
27 30 32 39 43 44 45 42 40 36 38 38 42 41 42 42 17 29 25 23 19 21 10 19 0 6 12 18 15 47 42 36 25 20 21 24 38 49 46 45 48 48 56 46 46 31 36
27 34 27 38 37 42 44 45 45 38 35 35 37 39 41 44 11 32 18 29 22 18 7 7 8 4 21 31 10 53 35 27 19 24 32 26 17 29 45 48 42 50 39 46 42 32 38
30 30 28 35 36 42 41 44 45 38 39 40 38 40 39 30 29 22 29 27 21 5 4 4 10 7 24 25 40 30 31 15 24 37 22 36 46 44 47 52 48 57 36 45 50 41 38
27 29 29 30 34 38 44 46 39 43 38 42 42 38 37 26 20 19 31 23 14 5 2 6 2 23 27 36 36 36 28 37 53 24 31 54 62 47 51 51 55 39 27 43 39 35 32
25 33 31 39 35 36 40 46 43 40 41 40 42 37 33 26 17 30 22 19 2 0 3 6 18 26 26 34 25 23 26 25 28 36 35 48 44 51 62 51 44 37 22 15 21 19 28
30 34 32 35 37 33 37 39 46 50 47 45 44 37 29 24 19 11 12 4 1 5 7 18 22 27 25 24 24 30 30 26 35 20 31 24 34 33 27 26 26 40 33 17 30 17 47
22 33 30 35 33 35 39 39 42 47 53 49 47 28 18 22 17 2 5 2 4 13 19 18 24 21 11 19 27 28 25 28 25 33 17 33 28 57 58 57 25 10 37 33 47 41 15
32 29 33 33 34 37 40 38 43 44 49 53 45 24 13 14 11 5 1 8 7 16 22 17 18 9 27 30 22 21 18 20 29 36 12 21 46 59 50 38 30 35 18 21 20 19 22
35 30 34 36 34 34 39 40 41 46 47 52 32 17 10 10 3 2 5 6 9 22 23 4 8 15 23 26 20 26 15 35 25 31 40 38 31 57 22 9 29 17 26 23 17 30 9
37 36 36 32 33 33 36 38 38 42 46 47 24 7 9 5 4 7 5 5 7 18 26 22 9 13 19 23 20 20 23 22 44 38 29 46 12 16 33 48 48 39 40 41 26 42 34
35 40 35 34 32 35 35 35 38 39 37 41 25 18 18 10 5 6 11 3 6 9 12 7 10 12 15 24 16 14 19 35 54 27 14 16 10 13 18 12 10 8 28 33 37 30 43
33 33 32 34 33 37 34 32 33 35 31 35 13 6 6 17 16 11 15 16 10 20 11 16 20 26 21 18 20 17 30 18 54 50 60 35 26 13 21 29 33 32 32 46 43 30 27
37 36 32 39 37 38 34 29 27 33 29 30 5 8 8 6 9 20 22 13 20 23 24 37 18 17 18 13 17 23 26 42 45 40 27 16 23 31 34 39 41 40 39 39 31 43 33
36 39 35 37 40 38 35 32 29 28 28 26 9 11 15 34 38 33 32 26 31 37 26 27 21 31 27 28 24 33 31 29 24 33 34 18 19 37 35 39 26 39 43 25 19 31 36
39 42 39 39 43 41 37 34 27 25 21 14 22 35 21 25 22 20 23 27 32 26 35 44 32 25 30 26 46 52 52 52 40 41 45 28 9 16 23 30 51 5 14 18 23 17 26
39 44 43 42 40 43 44 39 35 26 21 28 38 37 21 18 20 22 28 39 40 52 47 55 48 33 65 50 55 48 52 47 54 43 39 28 26 8 12 21 10 7 10 20 21 15 23
41 47 48 45 39 46 46 42 37 34 26 31 38 31 22 16 34 33 37 36 54 52 46 50 70 59 55 47 19 10 12 11 15 18 10 12 7 8 4 6 26 11 10 13 15 13 31
41 43 43 47 45 44 43 45 42 39 32 31 39 41 39 25 21 38 53 52 30 34 33 53 55 45 35 11 8 13 10 12 11 14 11 13 14 9 8 6 8 6 13 18 15 3 37
44 44 44 48 52 48 45 45 39 38 37 35 46 41 39 47 56 35 27 25 37 33 22 45 37 30 25 6 12 19 21 9 12 10 7 4 7 11 13 11 14 14 26 30 10 15 34
50 47 46 48 52 51 51 46 43 41 43 38 54 47 51 61 72 79 74 62 61 54 33 53 30 27 20 16 11 12 9 11 8 19 11 11 5 6 4 5 11 28 13 10 8 16 33
56 56 51 47 52 55 54 52 47 44 44 46 58 54 57 58 75 100 105 95 104 107 87 65 39 54 20 12 8 5 5 5 10 16 9 13 13 7 7 6 8 34 10 12 15 17 22
Wind_Direction_850mb
41 36 31 27 22 18 10 6 5 5 358 356 351 349 343 336 341 342 337 335 334 347 344 337 334 337 354 354 29 302 321 312 319 319 328 332 307 282 261 264 271 257 255 261 278 290 260
44 39 24 23 15 7 5 2 358 2 360 355 350 349 345 343 341 335 332 329 332 340 334 330 326 334 345 349 283 318 323 333 337 334 312 297 297 312 304 283 275 281 301 288 259 265 272
39 34 21 21 11 3 7 8 4 3 354 351 349 348 348 347 340 336 333 340 344 333 329 336 336 338 304 286 343 8 358 353 358 343 324 295 284 299 311 303 282 278 280 274 262 256 255
27 23 18 17 11 8 3 6 358 358 355 354 351 346 348 346 341 338 341 342 338 327 340 12 8 36 286 359 21 354 350 350 345 355 335 315 268 274 260 285 304 282 275 267 225 230 239
19 17 13 11 8 3 2 358 357 357 352 350 350 347 346 344 342 340 341 341 335 335 27 10 22 4 42 22 348 334 333 327 323 321 335 311 273 255 260 246 277 233 264 263 258 229 227
6 11 5 10 5 360 358 356 353 357 352 346 348 345 346 341 347 347 346 356 355 9 5 43 72 282 81 351 341 8 3 346 325 323 338 358 251 256 220 220 234 220 242 246 248 253 221
1 1 7 2 3 2 359 358 353 350 345 342 345 345 344 349 351 356 5 7 18 291 15 357 310 305 319 330 359 34 5 4 5 1 334 308 287 242 248 248 259 269 276 273 265 223 243
6 10 358 356 1 5 4 356 350 351 347 341 343 345 344 342 351 4 8 41 31 344 310 333 312 277 300 345 346 6 2 13 358 352 341 319 259 280 282 273 271 260 259 260 279 280 258
9 2 354 356 6 5 359 357 345 343 345 339 339 341 341 344 4 351 11 8 360 352 306 307 18 65 20 347 36 356 358 350 345 337 342 295 279 318 301 297 293 276 257 268 266 276 281
353 359 5 357 0 358 356 351 351 339 337 338 336 339 341 351 22 355 358 345 350 348 297 122 142 93 9 347 200 336 354 344 332 331 320 287 320 322 313 285 269 275 298 291 269 259 255
358 355 354 354 2 357 358 353 351 343 340 340 338 338 342 1 340 351 328 342 337 28 9 331 89 82 3 5 314 354 347 355 327 312 287 265 294 286 271 274 283 270 268 274 299 260 257
3 349 350 356 355 359 356 352 347 348 335 338 333 339 339 344 349 309 331 342 355 232 254 343 76 355 354 343 326 327 351 336 312 293 287 287 285 264 262 260 260 278 292 260 277 270 248
350 343 346 348 350 352 357 354 353 345 342 334 329 335 333 335 316 312 343 351 289 340 354 335 346 346 336 321 346 343 342 333 319 323 321 319 292 279 251 258 254 254 266 243 226 225 235
348 347 347 349 354 348 350 353 353 355 347 336 336 334 337 327 309 311 352 302 315 95 320 331 0 328 304 350 324 341 329 322 316 329 309 316 332 321 315 320 286 245 225 233 231 195 231
348 337 340 345 346 348 348 352 352 350 348 336 341 348 340 307 330 274 19 316 306 349 359 347 315 302 341 316 341 327 323 305 325 314 330 310 290 300 291 294 262 271 235 247 259 286 234
324 325 333 340 341 341 344 347 349 349 348 342 341 342 317 328 339 107 315 254 298 296 307 322 311 286 328 328 322 324 321 298 317 307 59 298 299 292 288 293 262 223 199 220 222 227 238
335 335 324 329 331 340 340 343 349 348 347 346 347 329 303 324 23 37 253 266 328 304 320 26 310 303 304 305 314 314 283 303 301 333 324 290 269 278 295 255 284 283 250 221 284 233 250
333 330 327 333 328 334 336 342 348 348 350 347 347 299 310 276 297 225 257 329 344 296 315 301 262 267 279 308 310 303 287 279 309 312 306 290 264 259 263 275 267 254 269 230 221 227 234
334 328 330 328 329 328 331 339 346 350 345 344 334 285 281 234 255 242 258 267 251 290 303 296 294 291 286 289 296 283 293 292 297 313 303 321 272 299 302 303 72 324 304 310 247 269 230
329 330 332 328 325 320 327 334 339 343 350 339 326 301 238 222 259 296 298 279 266 242 256 257 266 293 288 285 281 279 292 298 309 307 305 331 293 248 281 293 299 296 311 303 257 243 229
324 325 322 323 327 326 325 328 335 339 347 336 299 281 335 314 267 253 266 278 281 280 248 268 282 248 261 275 297 285 298 307 307 308 307 328 293 308 308 299 293 276 286 294 252 234 237
321 320 321 317 328 325 322 324 328 326 340 325 287 313 306 294 287 281 274 263 265 277 279 279 272 278 263 264 277 292 309 307 299 307 303 297 285 305 302 303 296 297 296 309 248 251 242
319 318 323 319 322 321 317 311 312 314 327 310 301 299 284 284 287 284 284 291 290 280 277 276 277 279 286 278 293 289 285 288 282 285 289 293 292 323 293 304 304 279 319 314 313 322 237
308 307 312 310 316 319 318 311 305 298 298 296 302 300 279 286 278 271 279 283 281 283 285 284 278 275 279 289 299 295 286 274 273 273 260 266 275 265 276 301 312 234 350 309 311 350 348
313 312 312 307 308 312 310 311 304 304 290 291 298 295 287 281 278 277 281 279 285 284 284 286 283 276 281 293 290 283 294 322 266 236 231 233 235 277 237 287 274 297 11 8 355 20 354
313 307 309 307 302 303 310 305 309 304 292 283 292 295 284 287 276 305 307 297 291 287 288 271 275 290 274 249 249 254 251 234 285 303 212 223 237 243 326 297 269 38 343 297 306 48 354
314 309 303 304 302 303 303 305 306 301 291 278 282 289 279 278 283 290 294 301 299 294 290 289 290 281 275 224 240 255 258 224 256 215 263 292 292 224 259 276 275 337 327 310 343 339 350
320 312 307 303 302 301 299 297 303 294 287 280 283 286 279 274 284 277 275 277 281 277 274 284 291 268 238 235 234 238 222 235 201 238 205 201 189 241 225 232 279 356 14 40 208 301 359
318 315 310 301 302 300 296 294 292 294 289 280 274 286 283 274 272 282 282 280 267 264 263 266 268 275 270 281 248 230 237 240 211 250 199 245 198 206 217 232 313 315 284 320 327 355 10